AirNav   Everest Fuels
 
 1067 users online  

9I0 Havana Regional Airport
Havana, Illinois, USA

GOING TO HAVANA?


FAA INFORMATION EFFECTIVE 16 JULY 2020

Location

FAA Identifier: 9I0
Lat/Long: 40-13-21.6950N 090-01-22.0150W
40-13.361583N 090-01.366917W
40.2226931,-90.0227819
(estimated)
Elevation: 488.2 ft. / 148.8 m (surveyed)
Variation: 01E (1985)
From city: 5 miles SE of HAVANA, IL
Time zone: UTC -5 (UTC -6 during Standard Time)
Zip code: 62644

Airport Operations

Airport use: Open to the public
Activation date: 03/1985
Control tower: no
ARTCC: KANSAS CITY CENTER
FSS: KANKAKEE FLIGHT SERVICE STATION
NOTAMs facility: IKK (NOTAM-D service available)
Attendance: IREG
Wind indicator: lighted
Segmented circle: no
Beacon: white-green (lighted land airport)
Operates sunset to sunrise.

Airport Communications

CTAF: 122.9

Nearby radio navigation aids

VOR radial/distance  VOR name  Freq  Var
SPIr326/27.9SPINNER VORTAC112.7001W
PIAr197/29.4PEORIA VORTAC115.2004E

 
NDB name  Hdg/Dist  Freq  Var  ID
MACOMB125/30.325101EJZY .--- --.. -.--
ABRAHAM277/31.632900EAAA .- .- .-

Airport Services

Fuel available: 100LL
SELF SVC FUEL AVBL 24 HRS.
Parking: tiedowns
Airframe service: NONE
Powerplant service: NONE
Bottled oxygen: NONE
Bulk oxygen: NONE

Runway Information

Runway 9/27

Dimensions: 2235 x 100 ft. / 681 x 30 m
Surface: turf, in good condition
Runway edge lights: medium intensity
RUNWAY 9  RUNWAY 27
Latitude: 40-13.360833N40-13.362333N
Longitude: 090-01.607000W090-01.126833W
Elevation: 485.5 ft.488.2 ft.
Traffic pattern: leftleft
Touchdown point: yes, no lightsyes, no lights

Airport Ownership and Management from official FAA records

Ownership: Publicly-owned
Owner: HAVANA REGIONAL PORT DISTRICT
17787 SHERWOOD FOREST RD
HAVANA, IL 62644
Phone (217) 725-0628
Manager: BOB MARTIN
18206 QUIVER BEACH RD
HAVANA, IL 62644-6895
Phone 309-871-6251
EMAIL ADDRESS: FLYBYEWIRE@GMAIL.COM (ALL LOWER CASE)

Airport Operational Statistics

Aircraft based on the field: 13
Single engine airplanes: 13
    
Aircraft operations: avg 27/week *
71% local general aviation
29% transient general aviation
* for 12-month period ending 31 March 2020

Additional Remarks

FOR CD CTC SPRINGFIELD APCH AT 217-535-1425. WHEN SPRINGFIELD APCH IS CLSD, CTC KANSAS CITY ARTCC AT 913-254-8508.

Instrument Procedures

There are no published instrument procedures at 9I0.

Some nearby airports with instrument procedures:

KCTK - Ingersoll Airport (21 nm N)
C15 - Pekin Municipal Airport (22 nm NE)
KSPI - Abraham Lincoln Capital Airport (28 nm SE)
KIJX - Jacksonville Municipal Airport (29 nm S)
KPIA - General Downing - Peoria International Airport (30 nm NE)
 
Loc | Ops | Rwys | IFR | FBO | Links
Com | Nav | Svcs | Stats | Notes
Area around 9I0 (Havana Regional Airport)
 
Road maps at: MapQuest Bing Google
 
Aerial photo
WARNING: Photo may not be current or correct
Aerial photo of 9I0 (Havana Regional Airport)
Taken mid June 2008

Do you have a better or more recent aerial photo of Havana Regional Airport that you would like to share? If so, please send us your photo.

 
Sectional chart

 
Airport distance calculator
Flying to Havana Regional Airport? Find the distance to fly.

From to 9I0

Sunrise and sunset
Times for 09-Aug-2020
 Local
(UTC-5)
 Zulu
(UTC)
Morning civil twilight05:3810:38
Sunrise06:0711:07
Sunset20:0301:03
Evening civil twilight20:3301:33

Current date and time
Zulu (UTC)  09-Aug-2020 21:52:03
Local (UTC-5)  09-Aug-2020 16:52:03
 
METAR
KSPI 
27nm SE 
092052Z 20009KT 10SM SCT031 29/23 A3000 RMK AO2 SLP154 T02940228 58018
KIJX 
29nm S 
092135Z AUTO 18009G14KT 10SM SCT032 SCT038 30/24 A2999 RMK AO2 T02970235
KPIA 
31nm NE 
092054Z 20012KT 10SM SCT029 OVC036 29/23 A2999 RMK AO2 SLP148 T02890228 58016 $
KAAA 
32nm E 
092135Z AUTO 18007KT 10SM CLR 29/22 A2999 RMK AO2 T02920222
KMQB 
34nm NW 
092135Z AUTO 18006KT 10SM SCT031 SCT037 29/25 A2998 RMK AO2 T02920246
KI63 
39nm W 
092135Z AUTO 21007KT 10SM SCT028 BKN043 31/24 A2998 RMK AO2 T03050244
KGBG 
47nm NW 
092135Z AUTO 16008KT 10SM CLR 29/23 A2998 RMK AO2 T02920229
KPPQ 
50nm SW 
092135Z AUTO 00000KT 10SM SCT030 SCT035 SCT040 31/26 A3000 RMK AO2 T03060264
TAF
KSPI 
27nm SE 
091722Z 0918/1018 20010KT P6SM SCT020 BKN070 FM092300 16006KT P6SM VCSH SCT050 BKN150 FM100800 17006KT P6SM VCTS SCT050CB BKN120 FM101400 21009KT P6SM BKN100
KPIA 
31nm NE 
091722Z 0918/1018 18010KT P6SM SCT035 BKN070 FM100000 17007KT P6SM VCSH SCT050 BKN250 FM100600 18007KT 6SM SHRA VCTS BKN050CB FM101200 23008KT P6SM SCT030 BKN100
NOTAMs
Click for the latest NOTAMs
NOTAMs are issued by the DoD/FAA and will open in a separate window not controlled by AirNav.

 

 
 

FBO, Fuel Providers, and Aircraft Ground Support

  
 Business Name 
 
 Contact 
 
 Services / Description 
 
Fuel Prices
 
Comments
  
Havana Regional Airport 309-543-9006
[web site]
[email]
Aviation fuel, Aircraft parking (ramp or tiedown)

More info about Havana Regional Airport
100LL
SS $4.89 
 Updated 21-Aug-2018
 
   1 read write
SS=Self service
Update Fuel Prices
 

Would you like to see your business listed on this page?

 If your business provides an interesting product or service to pilots, flight crews, aircraft, or users of the Havana Regional Airport, you should consider listing it here.  To start the listing process, click on the button below
 
Add a business
 

Other Pages about Havana Regional Airport

www.havanaregionalairport.com
 
Update a link
 
Copyright © AirNav, LLC. All rights reserved. Privacy Policy  Contact